This demonstration page uses our WeatherBlox Daily Observations layout. Learn more.

Left ArrowRight Arrow

Hourly Observations for December 13, 2020

Temp ( °F °C ) Dew Point ( °F °C ) Humidity (%) Winds ( mph kmh ) Pressure ( in mb ) Visibility ( mi km ) Precip ( " mm )
12:54 am 00:54 Clear 21 -6.1 18 -7.8 88 88 Calm 30.25 1025 10 16.0934 0 0
1:54 am 01:54 Clear 20 -6.7 17 -8.3 89 89 N 3 6 30.28 1025 10 16.0934 0 0
2:54 am 02:54 Mostly Clear 21 -6.1 17 -8.3 85 85 N 5 7 30.29 1026 10 16.0934 0 0
3:54 am 03:54 Partly Cloudy 19 -7.2 16 -8.9 88 88 N 6 9 30.29 1026 10 16.0934 0 0
4:54 am 04:54 Mostly Cloudy 16 -8.9 13 -10.6 88 88 N 6 9 30.27 1025 9 14.48406 0 0
5:31 am 05:31 Cloudy 20 -6.7 17 -8.3 89 89 Calm 30.32 1027 10 16.0934 0 0
5:54 am 05:54 Cloudy 20 -6.7 16 -8.9 85 85 Calm 30.28 1025 10 16.0934 0 0
6:54 am 06:54 Cloudy 23 -5 19 -7.2 85 85 Calm 30.29 1026 10 16.0934 0 0
7:54 am 07:54 Cloudy 23 -5 19 -7.2 85 85 W 3 6 30.31 1026 10 16.0934 0 0
8:54 am 08:54 Cloudy 24 -4.4 19 -7.2 81 81 WNW 7 11 30.33 1027 10 16.0934 0 0
9:54 am 09:54 Cloudy 25 -3.9 20 -6.7 81 81 NW 6 9 30.34 1028 10 16.0934 0 0
10:54 am 10:54 Cloudy 21 -6.1 17 -8.3 85 85 WNW 9 15 30.37 1028 10 16.0934 0 0
11:01 am 11:01 Cloudy 21 -6.1 17 -8.3 85 85 NW 8 13 30.4 1030 10 16.0934 0 0
11:54 am 11:54 Cloudy 24 -4.4 18 -7.8 77 77 NW 10 17 30.35 1028 9 14.48406 0 0
12:03 pm 12:03 Cloudy 23 -5 18 -7.8 81 81 NW 8 13 30.38 1029 10 16.0934 0 0
12:50 pm 12:50 Cloudy 25 -4 19 -7 80 80 NNW 9 15 30.36 1028 10 16.0934 0 0
12:54 pm 12:54 Cloudy 24 -4.4 19 -7.2 81 81 NW 9 15 30.32 1027 10 16.0934 0 0
1:29 pm 13:29 Cloudy 25 -3.9 19 -7.2 78 78 NW 9 15 30.35 1028 10 16.0934 0 0
1:54 pm 13:54 Cloudy 25 -3.9 19 -7.2 78 78 WNW 10 17 30.32 1027 10 16.0934 0 0
2:54 pm 14:54 Cloudy 26 -3.3 20 -6.7 78 78 WNW 7 11 30.3 1026 10 16.0934 0 0
3:54 pm 15:54 Mostly Cloudy 26 -3.3 20 -6.7 78 78 W 5 7 30.3 1026 10 16.0934 0 0
4:05 pm 16:05 Partly Cloudy 26 -3.3 20 -6.7 78 78 WSW 5 7 30.33 1027 10 16.0934 0 0
4:54 pm 16:54 Mostly Sunny 25 -3.9 19 -7.2 78 78 W 6 9 30.33 1027 10 16.0934 0 0
5:54 pm 17:54 Mostly Clear 24 -4.4 19 -7.2 81 81 WSW 3 6 30.32 1027 10 16.0934 0 0
6:54 pm 18:54 Clear 19 -7.2 15 -9.4 84 84 Calm 30.32 1027 10 16.0934 0 0
7:54 pm 19:54 Clear 20 -6.7 15 -9.4 81 81 Calm 30.34 1027 10 16.0934 0 0
8:54 pm 20:54 Clear 17 -8.3 14 -10 88 88 S 3 6 30.35 1028 10 16.0934 0 0
9:54 pm 21:54 Clear 17 -8.3 13 -10.6 84 84 Calm 30.34 1027 9 14.48406 0 0
10:54 pm 22:54 Clear 16 -8.9 12 -11.1 84 84 Calm 30.36 1028 10 16.0934 0 0
11:54 pm 23:54 Clear 12 -11.1 7 -13.9 80 80 Calm 30.35 1028 10 16.0934 0 0

Powered by AerisWeather